Regional Weather Roundup
Issued by NWS

Home | Current Version | Previous Version | Graphics & Text | Print | Product List | Glossary Off
Versions: 1 2 3 4 5 6 7 8 9 10 11 12 13 14 15 16 17 18 19 20 21 22 23 24 25 26 27 28 29 30 31 32 33 34 35 36 37 38 39 40 41 42 43 44 45 46 47 48 49 50

000
ASUS45 KBOI 111110
RWRID
WEATHER ROUNDUP FOR IDAHO
NATIONAL WEATHER SERVICE BOISE ID
500 AM MDT FRI JUL 11 2014

NOTE: "FAIR" INDICATES FEW OR NO CLOUDS BELOW 12000 FEET
WITH NO SIGNIFICANT WEATHER AND/OR OBSTRUCTIONS TO VISIBILITY

IDZ012-014-111200-
SOUTHWEST IDAHO


CITY           SKY/WX    TMP DP  RH WIND       PRES   REMARKS
BOISE          CLEAR     70  46  42 S7        29.88R
CALDWELL       CLEAR     68  43  40 W6        29.89R
MOUNTAIN HOME  CLEAR     67  44  43 NW5       29.88R
$$

IDZ016-017-111200-
SOUTHCENTRAL IDAHO


CITY           SKY/WX    TMP DP  RH WIND       PRES   REMARKS
BURLEY         PTCLDY    69  51  52 S12       29.96S
JEROME         CLEAR     71  47  42 SE8       29.96R
TWIN FALLS     CLEAR     71  47  42 S12       29.96R
$$

IDZ019>023-111200-
SOUTHEAST IDAHO


CITY           SKY/WX    TMP DP  RH WIND       PRES   REMARKS
IDAHO FALLS    CLEAR     55  49  80 N6        30.04R
POCATELLO      CLEAR     70  53  54 CALM      30.00R
REXBURG        PTCLDY    56  52  86 NE3       30.06R
$$

IDZ006-010-011-018-031-032-111200-
CENTRAL IDAHO MOUNTAINS


CITY           SKY/WX    TMP DP  RH WIND       PRES   REMARKS
MCCALL         CLEAR     52  43  71 CALM      30.04S
HAILEY         CLEAR     61  41  48 W7        30.06R
STANLEY          N/A     43  37  79 S6        30.18S
SALMON         PTCLDY    57  48  72 CALM      30.00S
CHALLIS        PTCLDY    58  40  51 CALM      30.06R
$$

IDZ002-004-006-007-026-111200-
NORTHERN IDAHO


CITY           SKY/WX    TMP DP  RH WIND       PRES   REMARKS
LEWISTON       CLEAR     66  33  29 CALM      29.90R
LOWELL           N/A     57  52  83 CALM      29.96R
COEUR D`ALENE  CLEAR     59  52  77 E5        29.93R
MULLAN PASS    CLEAR     62  37  39 N3        30.14R
$$



USA.gov is the U.S. government's official web portal to all federal, state and local government web resources and services.